This demonstration page uses our WeatherBlox Daily Observations layout. Learn more.

Left ArrowRight Arrow

39.08367, -84.50855

Hourly Observations for April 12, 2019

Temp ( °F °C ) Dew Point ( °F °C ) Humidity (%) Winds ( mph kmh ) Pressure ( in mb ) Visibility ( mi km ) Precip ( " mm )
12:53 am 00:53 Mostly Clear 73 22.8 48 8.9 41 41 S 12 19 29.72 1007 10 16.0934 0 0
1:53 am 01:53 Mostly Cloudy 73 22.8 48 8.9 41 41 S 12 19 29.72 1006 10 16.0934 0 0
2:53 am 02:53 Clear 73 22.8 49 9.4 43 43 S 14 22 29.7 1006 10 16.0934 0 0
3:53 am 03:53 Mostly Cloudy 72 22.2 49 9.4 44 44 S 13 20 29.7 1006 10 16.0934 0 0
4:53 am 04:53 Clear 71 21.7 50 10 47 47 SSE 15 24 29.69 1005 10 16.0934 0 0
5:53 am 05:53 Cloudy with Light Rain 69 20.6 53 11.7 57 57 S 14 22 29.7 1006 9 14.48406 0 0.0254
6:53 am 06:53 Mostly Cloudy 71 21.7 53 11.7 53 53 S 18 30 29.7 1006 10 16.0934 0 0.0254
7:53 am 07:53 Partly Cloudy 69 20.6 56 13.3 63 63 S 20 31 29.74 1007 10 16.0934 0 0
7:58 am 07:58 Mostly Cloudy with Thunderstorms 69 20.6 57 13.9 66 66 SSW 23 37 29.77 1008 10 16.0934 0 0
8:03 am 08:03 Mostly Cloudy with Heavy Thunderstorms 65 18.3 55 12.8 70 70 W 33 54 29.83 1010 0.5 0.80467 0.12 3.048
8:07 am 08:07 Mostly Cloudy with Heavy Thunderstorms 58 14.4 55 12.8 90 90 W 22 35 29.82 1010 0.5 0.80467 0.23 5.842
8:11 am 08:11 Windy with Storms Likely 58 14.4 56 13.3 93 93 W 22 35 29.84 1010 5 8.0467 0.23 5.842
8:28 am 08:28 Cloudy with Light Rain 58 14.4 56 13.3 93 93 WSW 9 15 29.83 1010 10 16.0934 0.24 6.096
8:53 am 08:53 Mostly Cloudy 59 15 57 13.9 93 93 SW 3 6 29.82 1010 10 16.0934 0.24 6.096
9:53 am 09:53 Mostly Cloudy 63 17.2 54 12.2 73 73 SW 16 26 29.82 1010 10 16.0934 0 0
10:42 am 10:42 Mostly Cloudy 63 17.2 55 12.8 76 76 SW 14 22 29.84 1011 10 16.0934 0 0
10:50 am 10:50 Partly Cloudy 63 17 54 12 73 73 SW 17 28 29.85 1011 10 16.0934 0 0
10:53 am 10:53 Mostly Cloudy 63 17.2 54 12.2 73 73 SW 18 30 29.85 1011 10 16.0934 0 0
11:53 am 11:53 Mostly Cloudy 63 17.2 53 11.7 70 70 SW 15 24 29.86 1011 10 16.0934 0 0
12:00 pm 12:00 Mostly Cloudy 63 17.2 53 11.7 70 70 SW 13 20 29.85 1011 10 16.0934 0 0
12:53 pm 12:53 Sunny 63 17.2 51 10.6 65 65 SW 17 28 29.89 1012 10 16.0934 0 0
1:53 pm 13:53 Sunny 63 17.2 50 10 63 63 SW 15 24 29.89 1012 10 16.0934 0 0
2:53 pm 14:53 Sunny 64 17.8 47 8.3 54 54 SW 16 26 29.89 1012 10 16.0934 0 0
3:53 pm 15:53 Sunny 67 19.4 46 7.8 47 47 SSW 17 28 29.9 1013 10 16.0934 0 0
4:53 pm 16:53 Sunny 67 19.4 41 5 39 39 SSW 15 24 29.91 1013 10 16.0934 0 0
5:53 pm 17:53 Sunny 67 19.4 38 3.3 35 35 WSW 18 30 29.93 1014 10 16.0934 0 0
6:53 pm 18:53 Sunny 65 18.3 37 2.8 36 36 WSW 13 20 29.95 1014 10 16.0934 0 0
7:53 pm 19:53 Sunny 64 17.8 32 0 30 30 SW 13 20 29.96 1015 10 16.0934 0 0
8:53 pm 20:53 Clear 59 15 34 1.1 39 39 SW 8 13 29.98 1015 10 16.0934 0 0
9:53 pm 21:53 Clear 54 12.2 40 4.4 59 59 SSW 5 7 30.01 1016 10 16.0934 0 0
10:53 pm 22:53 Clear 54 12.2 41 5 62 62 Calm 30.04 1017 10 16.0934 0 0
11:53 pm 23:53 Clear 49 9.4 41 5 74 74 SW 6 9 30.05 1018 10 16.0934 0 0

Powered by AerisWeather